Вернуться в каталог

STARLINK-11620

АктивенСвязьVLEO
NORAD 63271·PAYLOAD·🇺🇸 United States

Запущен Mar 15, 2025 с Cape Canaveral Space Force Station

Loading…

Ближайшие Пролёты (ближайшие 24 часа)

TLE

СвежийSource: CelesTrak SupGP

Эпоха: Sep 15, 2026, 03:07 UTC

1 63271C 25053G   26258.13034722 -.00058996  00000+0 -45866-3 0  2587
2 63271  43.0011  50.7519 0001745 280.9283 273.1294 15.70844641    15

Отслеживайте STARLINK-11620 в реальном времени с AllMySat

Download on the App Store